2023/01/31 00:00:00,167.4,-4.4
2023/01/31 00:10:00,167.2,-4.4
2023/01/31 00:20:00,167.1,-4.8
2023/01/31 00:30:00,167.0,-4.4
2023/01/31 00:40:00,166.9,-4.6
2023/01/31 00:50:00,166.8,-4.8
2023/01/31 01:00:00,166.8,-5.9
2023/01/31 01:10:00,166.6,-6.5
2023/01/31 01:20:00,166.4,-7.2
2023/01/31 01:30:00,166.3,-6.2
2023/01/31 01:40:00,166.1,-6.0
2023/01/31 01:50:00,166.0,-5.7
2023/01/31 02:00:00,165.8,-5.5
2023/01/31 02:10:00,165.7,-5.5
2023/01/31 02:20:00,165.6,-5.1
2023/01/31 02:30:00,165.4,-4.9
2023/01/31 02:40:00,164.9,-5.2
2023/01/31 02:50:00,164.8,-5.1
2023/01/31 03:00:00,164.7,-5.1
2023/01/31 03:10:00,164.5,-5.2
2023/01/31 03:20:00,164.3,-5.3
2023/01/31 03:30:00,164.1,-5.2
2023/01/31 03:40:00,164.4,-4.8
2023/01/31 03:50:00,164.6,-5.0
2023/01/31 04:00:00,164.8,-4.9
2023/01/31 04:10:00,165.2,-4.8
2023/01/31 04:20:00,165.2,-4.9
2023/01/31 04:30:00,165.2,-4.9
2023/01/31 04:40:00,165.0,-5.1
2023/01/31 04:50:00,164.9,-5.2
2023/01/31 05:00:00,164.8,-6.3
2023/01/31 05:10:00,164.6,-6.4
2023/01/31 05:20:00,164.4,-6.3
2023/01/31 05:30:00,164.3,-6.3
2023/01/31 05:40:00,164.1,-6.0
2023/01/31 05:50:00,164.0,-6.1
2023/01/31 06:00:00,163.9,-5.8
2023/01/31 06:10:00,163.7,-5.7
2023/01/31 06:20:00,163.5,-5.6
2023/01/31 06:30:00,163.3,-5.4
2023/01/31 06:40:00,163.1,-5.1
2023/01/31 06:50:00,162.9,-5.2
2023/01/31 07:00:00,162.7,-5.1
2023/01/31 07:10:00,162.6,-5.0
2023/01/31 07:20:00,162.6,-4.9
2023/01/31 07:30:00,162.5,-4.8
2023/01/31 07:40:00,162.5,-4.6
2023/01/31 07:50:00,162.7,-4.1
2023/01/31 08:00:00,162.7,-4.3
2023/01/31 08:10:00,162.8,-3.9
2023/01/31 08:20:00,162.9,-3.6
2023/01/31 08:30:00,163.0,-3.1
2023/01/31 08:40:00,163.0,-2.8
2023/01/31 08:50:00,162.9,-2.4
2023/01/31 09:00:00,162.8,-2.0
2023/01/31 09:10:00,162.9,-2.2
2023/01/31 09:20:00,162.9,-2.6
2023/01/31 09:30:00,163.2,-2.2
2023/01/31 09:40:00,163.2,-1.9
2023/01/31 09:50:00,163.1,-1.4
2023/01/31 10:00:00,163.0,-1.2
2023/01/31 10:10:00,162.8,-1.2
2023/01/31 10:20:00,162.6,-1.4
2023/01/31 10:30:00,162.5,-1.3
2023/01/31 10:40:00,162.5,-0.9
2023/01/31 10:50:00,162.3,-1.1
2023/01/31 11:00:00,162.3,-0.7
2023/01/31 11:10:00,162.2, 1.8
2023/01/31 11:20:00,162.0, 2.4
2023/01/31 11:30:00,161.9, 3.6
2023/01/31 11:40:00,161.7, 3.4
2023/01/31 11:50:00,161.5, 4.8
2023/01/31 12:00:00,161.4, 4.7
2023/01/31 12:10:00,161.3, 5.1
2023/01/31 12:20:00,161.2, 8.0
2023/01/31 12:30:00,161.1, 9.6
2023/01/31 12:40:00,160.7,10.0
2023/01/31 12:50:00,160.5,11.8
2023/01/31 13:00:00,160.5,12.6
2023/01/31 13:10:00,160.2,13.4
2023/01/31 13:20:00,159.9,14.2
2023/01/31 13:30:00,159.7,13.7
2023/01/31 13:40:00,159.5,13.2
2023/01/31 13:50:00,158.9,12.9
2023/01/31 14:00:00,149.8,12.9
2023/01/31 14:10:00,143.9,11.7
2023/01/31 14:20:00,143.9,12.6
2023/01/31 14:30:00,144.1, 7.4
2023/01/31 14:40:00,143.7,10.3
2023/01/31 14:50:00,144.0, 5.9
2023/01/31 15:00:00,144.4, 4.2
2023/01/31 15:10:00,144.5, 3.8
2023/01/31 15:20:00,144.5, 4.1
2023/01/31 15:30:00,144.2, 9.6
2023/01/31 15:40:00,144.0,10.5
2023/01/31 15:50:00,144.1,10.5
2023/01/31 16:00:00,144.2, 6.7
2023/01/31 16:10:00,144.1, 5.8
2023/01/31 16:20:00,144.0, 5.2
2023/01/31 16:30:00,144.1, 2.4
2023/01/31 16:40:00,144.1, 1.2
2023/01/31 16:50:00,144.1, 1.6
2023/01/31 17:00:00,144.0, 2.5
2023/01/31 17:10:00,144.0, 0.4
2023/01/31 17:20:00,143.9,-0.9
2023/01/31 17:30:00,143.7,-0.9
2023/01/31 17:40:00,143.6,-0.9
2023/01/31 17:50:00,143.5,-1.1
2023/01/31 18:00:00,143.6,-1.1
2023/01/31 18:10:00,143.5,-1.1
2023/01/31 18:20:00,143.4,-1.5
2023/01/31 18:30:00,143.4,-2.2
2023/01/31 18:40:00,143.3,-2.8
2023/01/31 18:50:00,143.1,-3.2
2023/01/31 19:00:00,143.1,-2.9
2023/01/31 19:10:00,143.0,-2.5
2023/01/31 19:20:00,143.0,-3.3
2023/01/31 19:30:00,143.1,-3.6
2023/01/31 19:40:00,143.0,-3.7
2023/01/31 19:50:00,142.8,-3.5
2023/01/31 20:00:00,142.7,-3.5
2023/01/31 20:10:00,142.6,-3.5
2023/01/31 20:20:00,142.4,-3.3
2023/01/31 20:30:00,142.2,-3.2
2023/01/31 20:40:00,142.1,-3.1
2023/01/31 20:50:00,141.9,-3.3
2023/01/31 21:00:00,141.8,-3.4
2023/01/31 21:10:00,141.7,-4.0
2023/01/31 21:20:00,141.6,-3.8
2023/01/31 21:30:00,141.4,-3.6
2023/01/31 21:40:00,141.3,-4.0
2023/01/31 21:50:00,141.3,-3.7
2023/01/31 22:00:00,141.2,-3.7
2023/01/31 22:10:00,141.0,-3.9
2023/01/31 22:20:00,140.9,-3.8
2023/01/31 22:30:00,140.8,-3.7
2023/01/31 22:40:00,140.8,-3.6
2023/01/31 22:50:00,140.9,-3.9
2023/01/31 23:00:00,140.8,-3.7
2023/01/31 23:10:00,141.0,-3.5
2023/01/31 23:20:00,141.1,-3.6
2023/01/31 23:30:00,141.0,-3.6
2023/01/31 23:40:00,141.0,-3.5
2023/01/31 23:50:00,140.9,-3.9
